Dewpoint
68 68 67 67 66 66 65 65 65 64 63 62 62 64 67 68 68 68 68 67 66 66 65 65 63 62 61 59 60 59 54 55
67 67 64 62 63 65 65 65 64 64 64 63 63 63 66 66 66 67 67 66 66 65 64 64 62 61 59 60 59 58 54 54
65 66 65 63 63 64 66 65 64 64 64 64 63 66 66 65 66 66 66 65 65 64 64 62 61 60 59 60 58 53 55 55
64 65 64 64 65 63 63 64 65 64 62 64 63 65 65 66 65 65 65 65 64 63 62 61 57 53 54 56 53 53 54 55
63 64 64 64 64 62 63 63 64 64 62 64 65 65 64 64 64 64 63 63 61 60 59 55 52 53 53 52 53 53 54 55
61 62 62 63 63 63 63 63 64 65 62 64 64 64 63 64 63 62 61 60 59 57 54 52 51 52 52 53 53 53 54 55
61 61 61 63 62 61 62 62 63 64 64 64 64 63 62 62 63 62 60 58 57 54 53 50 50 51 52 53 53 54 54 55
60 61 61 60 60 60 61 62 62 63 64 63 63 62 62 61 62 61 58 55 54 52 52 49 50 49 51 52 53 53 54 55
61 61 61 60 61 61 61 60 61 62 63 63 63 62 62 61 62 60 55 53 51 51 52 52 50 51 51 52 53 53 54 54
61 62 60 61 60 59 58 58 58 61 62 64 63 62 61 62 61 59 55 53 49 52 52 51 51 51 51 52 52 53 53 53
60 59 59 59 60 59 58 58 58 59 59 63 62 62 61 61 61 59 57 55 53 53 52 51 50 51 50 51 52 53 53 52
60 59 59 60 59 58 58 57 57 57 57 60 61 61 61 61 59 59 59 57 54 52 51 51 51 50 48 51 51 53 53 53
59 58 58 59 58 56 56 55 55 55 56 57 59 59 59 58 58 57 57 55 53 51 50 49 49 49 49 49 50 52 51 52
58 58 58 58 57 56 56 55 55 55 55 56 57 58 58 58 57 57 56 54 52 50 49 50 48 50 48 47 45 46 49 51
57 57 57 57 58 56 56 55 54 53 53 53 55 57 58 57 57 57 55 54 52 50 49 48 46 50 49 48 46 45 46 48
57 57 57 57 58 56 54 52 52 52 52 52 52 54 55 55 54 54 53 53 51 51 51 50 51 47 52 54 53 52 47 46
56 57 57 57 57 56 54 52 52 51 51 51 52 52 51 51 52 51 51 52 53 51 53 53 53 52 50 51 51 54 53 50
55 56 56 57 57 55 54 52 51 50 49 50 50 51 52 51 50 49 53 53 54 53 53 53 55 55 54 53 51 51 52 53
54 55 56 57 57 55 54 52 50 50 47 48 49 50 50 51 52 50 53 54 56 55 55 55 55 56 55 54 55 54 55 53
54 54 54 56 57 55 55 53 51 50 48 47 48 50 49 52 54 55 54 55 56 56 56 56 56 56 55 55 55 55 56 55
Lifted_Index
-3 -3 -4 -4 -4 -4 -4 -3 -2 -1 1 2 3 2 -2 -4 -3 -3 -2 -2 -1 -0 0 1 2 2 3 4 5 5 5 6
-3 -3 -3 -3 -3 -3 -3 -2 -1 -0 1 2 3 1 -1 -3 -3 -2 -2 -1 -1 0 1 1 2 3 3 4 5 5 5 5
-3 -3 -3 -3 -2 -2 -1 -1 -0 0 1 2 2 1 -1 -1 -2 -1 -1 -1 0 1 2 2 3 3 4 4 5 5 5 5
-1 -2 -2 -2 -2 -1 -1 -0 -0 0 1 1 1 0 -0 -0 -1 -1 -0 1 1 2 3 3 4 4 4 5 5 5 5 5
-0 -1 -1 -1 -1 -1 -1 -0 -0 0 1 1 1 0 0 0 0 1 1 2 2 3 4 4 5 4 4 5 5 5 5 5
0 -0 -0 -1 -1 -1 -1 -0 -0 -0 0 0 0 0 0 1 1 1 2 3 3 4 5 6 5 5 5 5 5 5 5 5
0 0 0 0 -0 -0 -1 -0 -0 -0 -0 -0 0 0 1 1 1 2 3 4 5 6 6 6 6 5 5 5 5 5 5 5
0 1 1 1 1 0 0 0 -0 -0 -0 -0 -0 0 0 1 1 2 3 5 6 7 7 7 6 5 5 5 5 5 5 5
0 1 1 1 1 1 1 1 0 0 -0 -0 -0 0 0 1 2 2 3 5 7 7 7 6 6 5 5 5 5 5 5 5
0 1 1 1 1 1 2 2 1 1 0 -0 -0 0 1 1 2 3 4 6 6 6 6 6 6 5 5 5 5 5 5 5
0 1 1 1 2 2 3 3 3 2 2 1 0 -0 0 2 3 4 5 6 5 5 5 6 6 6 5 5 5 5 5 5
1 1 1 2 2 3 3 4 4 4 3 2 1 1 1 2 3 4 5 5 5 5 5 5 6 6 6 5 5 5 5 5
1 1 2 2 2 3 4 4 4 4 4 3 2 1 1 2 3 4 4 4 4 5 5 6 6 6 6 6 5 5 4 4
1 1 2 2 2 3 3 4 4 5 4 3 2 2 2 2 4 4 4 4 4 5 6 6 6 6 6 6 5 4 4 4
1 2 2 2 2 3 3 4 4 4 4 3 2 2 2 3 4 4 4 4 4 5 6 6 6 6 6 5 5 4 4 4
1 2 3 3 2 3 3 3 4 4 4 4 3 3 3 4 4 4 4 4 4 5 6 6 6 6 5 5 4 4 4 4
1 2 3 3 3 3 3 3 3 4 4 4 4 4 4 4 4 5 5 5 5 6 6 6 6 6 5 4 4 3 3 3
1 2 3 3 3 3 3 3 3 4 4 4 4 4 4 5 5 6 6 5 5 5 5 5 5 5 5 4 3 3 2 2
1 2 3 3 3 3 3 3 3 3 4 4 4 4 5 6 6 6 6 5 5 5 5 4 4 3 3 3 3 2 2 2
1 2 3 3 3 2 2 3 3 3 4 4 4 4 5 6 6 5 5 5 4 4 4 3 3 3 2 2 2 2 2 1